VALLADOLID / VILLANUBLA current weather conditions

sailwx.info

Wind from 260 at 26 knots gusting 40

Air temperature 6.0° C
Visibility: greater than 5.4 NM
Dewpoint 4.0° C

Last reported at 2016-Feb-09 20:30 UTC.
Time now 2016-Feb-09 22:34 UTC

Location: N 41°43' W 004°51'.
View on Google Maps.

See reports from other nearby stations

  
Tides and Currents Weather Stations Pressure Air Temp Water Temp Dewpoint Dewpoint Depression Visibility Wind Speed Wind Dir Waves Ship Positions
date/time (UTC)wind fromknots sea level pressurealtimeterstation pressurevisibilityair tempwater tempwave heightnotes
2016-Feb-09 20:30 260 26 gusting 40 5.4 6.0
2016-Feb-09 20:00 260 31 gusting 44 5.4 7.0
2016-Feb-09 19:30 270 30 5.4 7.0
2016-Feb-09 19:00 270 27 gusting 38 5.4 8.0
2016-Feb-09 18:30 260 26 gusting 36 5.4 8.0
2016-Feb-09 18:00 260 25 5.4 8.0
2016-Feb-09 17:30 260 30 gusting 41 5.4 8.0
2016-Feb-09 17:00 260 31 gusting 46 5.4 9.0
2016-Feb-09 16:30 260 26 gusting 39 5.4 9.0
2016-Feb-09 16:00 260 26 gusting 36 5.4 9.0
2016-Feb-09 15:30 260 29 gusting 41 5.4 9.0
2016-Feb-09 15:00 260 27 gusting 41 5.410.0
2016-Feb-09 14:30 250 24 5.410.0
2016-Feb-09 14:00 250 23 4.3 9.0
2016-Feb-09 13:30 250 22 gusting 32 3.8 9.0 Light rain drizzle.
2016-Feb-09 13:00 240 24 2.7 9.0 Light rain drizzle.
2016-Feb-09 12:30 240 23 2.2 8.0 Light rain drizzle.
2016-Feb-09 12:00 240 22 2.4 8.0 Light rain drizzle.
2016-Feb-09 11:30 240 26 gusting 37 5.4 9.0
2016-Feb-09 11:00 240 24 5.4 8.0
2016-Feb-09 10:44 240 24 gusting 34 4.9 8.0
2016-Feb-09 10:30 240 26 2.4 8.0 Light rain drizzle.
2016-Feb-09 10:18 240 27 gusting 37 2.4 8.0 Light rain drizzle.
2016-Feb-09 10:00 240 25 gusting 35 5.4 8.0
2016-Feb-09 09:30 240 23 gusting 33 5.4 8.0
2016-Feb-09 09:00 240 24 5.4 8.0
2016-Feb-09 08:30 250 26 5.4 8.0
2016-Feb-09 08:00 250 27 gusting 38 5.4 8.0
2016-Feb-09 07:30 240 27 5.4 8.0
2016-Feb-09 07:00 240 25 5.4 8.0
2016-Feb-09 06:30 230 27 gusting 37 5.4 8.0
2016-Feb-09 06:00 230 26 gusting 37 5.4 8.0
2016-Feb-08 22:00 230 9 5.4 8.0
2016-Feb-08 21:30 230 12 5.4 8.0
2016-Feb-08 21:00 230 10 5.4 8.0
2016-Feb-08 20:30 220 10 5.4 8.0
2016-Feb-08 20:00 220 9 5.4 8.0
2016-Feb-08 19:30 220 9 5.4 8.0
2016-Feb-08 19:00 230 11 5.4 9.0
2016-Feb-08 18:30 210 10 5.4 9.0
2016-Feb-08 18:00 220 11 5.4 9.0
2016-Feb-08 17:30 220 11 5.4 8.0
2016-Feb-08 17:00 230 13 5.4 8.0 Light drizzle.
2016-Feb-08 16:30 230 12 4.9 8.0 Light drizzle.
2016-Feb-08 16:00 230 14 3.2 8.0 Light drizzle.
2016-Feb-08 15:30 240 19 4.9 9.0 Light drizzle.
2016-Feb-08 15:00 240 14 5.4 9.0 Light drizzle.
2016-Feb-08 14:30 240 17 5.4 8.0 Light drizzle.
2016-Feb-08 14:00 230 17 4.3 8.0 Light drizzle.
2016-Feb-08 13:30 230 20 5.4 8.0
2016-Feb-08 13:00 240 17 4.9 8.0 Light drizzle.
2016-Feb-08 12:30 240 19 5.4 9.0
2016-Feb-08 12:00 230 17 5.4 8.0
2016-Feb-08 11:30 230 20 4.9 8.0 Light drizzle.
2016-Feb-08 11:00 230 17 5.4 8.0 Light drizzle.
2016-Feb-08 10:30 230 16 4.9 7.0
2016-Feb-08 10:00 230 15 5.4 7.0
2016-Feb-08 09:30 230 13 5.4 7.0 Light drizzle.
2016-Feb-08 09:00 230 14 5.4 6.0 Light drizzle.
2016-Feb-08 08:30 230 12 5.4 6.0
2016-Feb-08 08:00 230 14 5.4 6.0 Light drizzle.
2016-Feb-08 07:45 230 15 5.4 6.0
2016-Feb-08 07:30 220 13 5.4 6.0
2016-Feb-08 07:00 240 12 5.4 6.0
2016-Feb-08 06:30 230 10 5.4 6.0
2016-Feb-08 06:00 230 13 5.4 6.0